Starlink 3174

operational
NORAD ID: 51468 Int'l Des: 2022-010 Owner: SPXS Country: US Constellation: starlink
LEOCIRCULAR

关于 Starlink 3174

正在加载描述...

实时位置

正在加载3D地球...

即将过境

高度历史

Altitude vs Time

uPlot chart will show altitude changes over time

两行轨道根数

1 51468U 22010N 25302.85374265 -.00000929 00000-0 -40299-4 0 9991
2 51468 53.2141 146.4284 0001386 93.7138 266.4013 15.08834219206764
Epoch: Oct 29, 2025 • Age: 35 hours

当前状态

高度 539.8 km
速度 7.60 km/s
星下点 15.23°N, 1.54°W
发射日期 Feb 3, 2022
运行时间 3.7 years
类型 internet

技术详情

分类 Payload
质量 297.00 kg
干质量 275.00 kg
总质量 297.00 kg
长度 0.20 m
直径 2.80 m
跨度 9.00 m
形状 Box + pan
制造商 SPXS
平台类型 Starlink
阶段状态 In Orbit
所有者/国家 SPXS/US

大型星座

Loading constellations...